Tracking 25195 objects as of 20-Jan-2022
HD Live streaming from Space Station
objects crossing your sky now

STARLINK-1659

Track STARLINK-1659 now!
10-day predictions
STARLINK-1659 is classified as:


NORAD ID: 46534
Int'l Code: 2020-070C
Perigee: 553.4 km
Apogee: 555.4 km
Inclination: 53.1 °
Period: 95.6 minutes
Semi major axis: 6925 km
RCS: Unknown
Launch date: October 6, 2020
Source: United States (US)
Launch site: AIR FORCE EASTERN TEST RANGE (AFETR)
aabbcc
Your satellite tracking list
Your tracking list is empty




NASA's NSSDC Master Catalog

Two Line Element Set (TLE):
1 46534U 20070C   22019.68711363  .00002176  00000-0  16498-3 0  9997
2 46534  53.0558 115.2795 0001502  86.2603 273.8557 15.06386971 71914
Source of the keplerian elements: AFSPC